TimeCDT,TemperatureF,Dew PointF,Humidity,Sea Level PressureIn,VisibilityMPH,Wind Direction,Wind SpeedMPH,Gust SpeedMPH,PrecipitationIn,Events,Conditions,WindDirDegrees,DateUTC
12:56 AM,77.0,73.9,90,30.16,10.0,NW,3.5,-,N/A,,Clear,310,2013-07-18 05:56:00
1:56 AM,77.0,73.0,88,30.16,10.0,Calm,Calm,-,N/A,,Clear,0,2013-07-18 06:56:00
2:56 AM,75.9,73.0,91,30.16,10.0,Calm,Calm,-,N/A,,Mostly Cloudy,0,2013-07-18 07:56:00
3:13 AM,75.2,73.4,94,30.13,10.0,Calm,Calm,-,0.00,Rain-Thunderstorm,Light Thunderstorms and Rain,0,2013-07-18 08:13:00
3:56 AM,75.9,73.9,94,30.15,9.0,East,5.8,-,0.00,Rain-Thunderstorm,Light Thunderstorms and Rain,80,2013-07-18 08:56:00
4:20 AM,73.4,71.6,94,30.15,6.0,ENE,12.7,20.7,0.07,Rain-Thunderstorm,Heavy Thunderstorms and Rain,70,2013-07-18 09:20:00
4:22 AM,73.4,71.6,94,30.15,5.0,ENE,17.3,24.2,0.09,Rain-Thunderstorm,Heavy Thunderstorms and Rain,70,2013-07-18 09:22:00
4:27 AM,71.6,69.8,94,30.15,1.8,ENE,21.9,33.4,0.29,Rain-Thunderstorm,Heavy Thunderstorms and Rain,70,2013-07-18 09:27:00
4:34 AM,71.6,69.8,94,30.15,1.0,East,13.8,32.2,0.64,Rain-Thunderstorm,Heavy Thunderstorms and Rain,90,2013-07-18 09:34:00
4:41 AM,71.6,68.0,88,30.17,1.2,NNE,4.6,23.0,0.83,Rain-Thunderstorm,Heavy Thunderstorms and Rain,30,2013-07-18 09:41:00
4:47 AM,71.6,69.8,94,30.18,2.0,NW,15.0,20.7,0.92,Rain-Thunderstorm,Heavy Thunderstorms and Rain,320,2013-07-18 09:47:00
4:56 AM,72.0,69.1,91,30.20,4.0,North,10.4,-,0.94,Rain-Thunderstorm,Thunderstorms and Rain,360,2013-07-18 09:56:00
5:05 AM,71.6,69.8,94,30.19,2.5,NE,11.5,17.3,0.13,Rain-Thunderstorm,Heavy Thunderstorms and Rain,40,2013-07-18 10:05:00
5:56 AM,70.0,68.0,93,30.18,10.0,Calm,Calm,-,0.31,Rain-Thunderstorm,Light Thunderstorms and Rain,0,2013-07-18 10:56:00
6:30 AM,69.8,68.0,94,30.13,7.0,SSW,9.2,-,0.04,Rain,Light Rain,200,2013-07-18 11:30:00
6:56 AM,70.0,68.0,93,30.15,10.0,West,3.5,-,0.05,,Mostly Cloudy,270,2013-07-18 11:56:00
7:56 AM,73.0,70.0,90,30.18,10.0,Calm,Calm,-,N/A,,Mostly Cloudy,0,2013-07-18 12:56:00
8:56 AM,75.0,70.0,84,30.18,10.0,Calm,Calm,-,N/A,,Mostly Cloudy,0,2013-07-18 13:56:00
9:56 AM,80.1,71.1,74,30.18,10.0,North,3.5,-,N/A,,Mostly Cloudy,360,2013-07-18 14:56:00
10:56 AM,81.0,71.1,72,30.18,10.0,ENE,4.6,-,N/A,,Mostly Cloudy,70,2013-07-18 15:56:00
11:56 AM,82.9,72.0,69,30.17,10.0,ESE,6.9,-,N/A,,Mostly Cloudy,110,2013-07-18 16:56:00
12:56 PM,84.9,70.0,61,30.16,10.0,Calm,Calm,-,N/A,,Mostly Cloudy,0,2013-07-18 17:56:00
1:56 PM,87.1,71.1,59,30.12,10.0,ENE,5.8,-,N/A,,Scattered Clouds,60,2013-07-18 18:56:00
2:56 PM,87.1,71.1,59,30.09,10.0,NE,6.9,-,N/A,,Scattered Clouds,50,2013-07-18 19:56:00
3:56 PM,86.0,72.0,63,30.07,10.0,ESE,5.8,-,N/A,,Scattered Clouds,110,2013-07-18 20:56:00
4:56 PM,84.9,72.0,65,30.06,10.0,ESE,5.8,-,N/A,,Mostly Cloudy,110,2013-07-18 21:56:00
5:56 PM,87.1,71.1,59,30.06,10.0,ESE,3.5,-,N/A,,Scattered Clouds,120,2013-07-18 22:56:00
6:56 PM,84.9,73.0,67,30.06,10.0,ENE,4.6,-,N/A,,Scattered Clouds,60,2013-07-18 23:56:00
7:56 PM,81.0,75.0,82,30.07,10.0,Calm,Calm,-,N/A,,Scattered Clouds,0,2013-07-19 00:56:00
8:56 PM,78.1,75.0,90,30.10,10.0,Calm,Calm,-,N/A,,Scattered Clouds,0,2013-07-19 01:56:00
9:56 PM,75.9,73.9,94,30.12,10.0,Calm,Calm,-,N/A,,Scattered Clouds,0,2013-07-19 02:56:00
10:56 PM,75.9,73.9,94,30.09,10.0,Calm,Calm,-,N/A,,Scattered Clouds,0,2013-07-19 03:56:00
11:56 PM,77.0,73.9,90,30.11,10.0,Calm,Calm,-,N/A,,Mostly Cloudy,0,2013-07-19 04:56:00